Weather in Gomel

Belarus     52˚25′26″N   31˚00′51″E
temp.,
°C
wind,
m/s
gust,
m/s
humid.,
%
clouds,
%
prec.,
mm/h
press.,
hPa
HPBL,
m
3 december, thu
thu300:00−3˚sse468396 0.0 1029524
03:00−2˚sse468397 0.1 1028545
06:00−3˚se379291 0.0 1028334
09:00−2˚se478592 0.1 1028511
12:00−1˚se4682100 0.0 1027523
15:00−1˚sse4683100 0.0 1027536
18:00−1˚se4788100 0.0 1026412
21:00−1˚se4890100 0.1 1026432
4 december, fri
fri400:00se4993100 0.0 1026384
03:00se51098100 0.1 1026361
06:00+2˚se61295100 0.0 1024482
09:00+2˚se61294100 0.1 1025526
12:00+2˚se61393100 0.1 1025565
15:00+3˚se61290100 0.1 1025531
18:00+2˚se61392100 0.0 1025503
21:00+1˚se81392100 0.0 1026514
5 december, sat
sat500:00se71293100 0.0 1027548
03:00+1˚sse71293100 0.0 1028656
06:00+1˚sse61192100 0.0 1028620
09:00+1˚se61189100 0.0 1029578
12:00+1˚se61185100 0.0 1029600
15:00+1˚se61183100 0.0 1029616
18:00+1˚se6118597 0.0 1030689
21:00se6128498 0.0 1031691
6 december, sun
sun600:00−3˚se6128473 0.0 1032461
03:00−3˚se6117543 0.0 1032434
06:00−4˚se611670 0.0 1033408
09:00−4˚se611600 0.0 1033425
12:00−2˚se612480 0.0 1033468
15:00−1˚se611470 0.0 1032512
18:00−3˚ese612550 0.0 1032449
21:00−3˚se612530 0.0 1033451
7 december, mon
mon700:00−4˚se613520 0.0 1033458
03:00−4˚se613550 0.0 1033456
06:00−5˚se612650 0.0 1032443
09:00−5˚se612720 0.0 1032430
12:00−4˚se712590 0.0 1032465
15:00−2˚se712500 0.0 1031527
18:00−4˚se614650 0.0 1031473
21:00−5˚se513650 0.0 1031474